Погода в Болгатове

Россия / Псковская область     56°47′56″N   28°56′13″E
темп.,
°C
ветер,
м/с
пор.,
м/с
влажн.,
%
обл.,
%
осадки,
мм/ч
давл.,
гПа
погр.,
м
26 октября, вт
вт2600:00+3ююз41380100 0.0 1022455
03:00+3ююз41380100 0.0 1020412
06:00+2ююз41281100 0.0 1019368
09:00+2ююз41180100 0.0 1018353
12:00+5ююз41070100 0.0 1017466
15:00+7ююз41067100 0.0 1015559
18:00+5ююз41175100 0.0 1015423
21:00+5ююз41279100 0.0 1014446
27 октября, ср
ср2700:00+4ююз41283100 0.0 1013441
03:00+5юз51282100 0.0 1011590
06:00+6зюз41194100 0.4 1010620
09:00+8з61075100 0.4 10111071
12:00+8зюз51076100 0.1 10121216
15:00+8зюз5107595 0.1 10131201
18:00+8зюз41184100 0.0 1012710
21:00+7ююз51294100 1.1 1010617
28 октября, чт
чт2800:00+9юз51494100 3.9 1008998
03:00+10зюз61492100 5.1 1007946
06:00+11з61393100 0.2 1008993
09:00+10зсз5128750 0.4 1010954
12:00+9сз51082100 0.1 10141163
15:00+9сз597974 0.1 1017975
18:00+7ссз2785100 0.1 1021351
21:00+7ссв118697 0.1 102340
29 октября, пт
пт2900:00+5ююв2291100 0.0 102540
03:00+5ю2793100 0.0 1025170
06:00+5ю399211 0.0 1025234
09:00+6ю4118860 0.0 1026327
12:00+9ююз4108599 0.0 1026320
15:00+11ююз41085100 0.0 1025522
18:00+9ю41192100 0.0 1025324
21:00+8ю4139396 0.0 1025376
30 октября, сб
сб3000:00+8ю515915 0.0 1024449
03:00+7ю5159091 0.0 1024451
06:00+7ю51490100 0.0 1023431
09:00+7ю5158981 0.0 1022451
12:00+10ю5157855 0.0 1021543
15:00+12ю5137426 0.0 1020758
18:00+10ю5148272 0.0 1019692
21:00+9ююз51484100 0.0 1019601